Flag for Germany Past Weather in Langenfeld (Rheinland), North Rhine-Westphalia, Germany — Yesterday and Last 2 Weeks

Now
57 °F

Light rain. Broken clouds.


Feels Like: 55 °F
Forecast: 43 / 65 °F
Wind: 9 mph from North

Location: Duesseldorf

Current Time: May 24, 2016 at 5:48:18 PM

Latest Report: May 24, 2016 at 5:20 PM


Visibility: N/A

Pressure: 30.01 "Hg

Humidity: 72%

Dew Point: 48 °F

Location of Langenfeld (Rheinland)Location

Past Weather in Langenfeld (Rheinland) — Graph

°F

Langenfeld (Rheinland) Temperature Yesterday

Maximum temperature yesterday: 61 °F (at 12:20 AM)
Minimum temperature yesterday: 50 °F (at 10:50 PM)
Average temperature yesterday: 55 °F

High & Low Weather Summary for the Past Weeks

 TemperatureHumidityPressure
High79 °F (May 9, 4:20 PM)100% (May 19, 3:50 AM)30.12 "Hg (May 19, 3:50 AM)
Low41 °F (May 15, 5:20 AM)27% (May 13, 4:20 PM)29.47 "Hg (May 12, 1:20 PM)
Average59 °F68%29.86 "Hg
* Reported May 9 4:20 PM — May 24 4:20 PM, Langenfeld (Rheinland), Weather by CustomWeather, © 2016

Note: Actual official high and low records may vary slightly from our data, if they occured in-between our weather recording intervals... More about our weather records

Advertising

Langenfeld (Rheinland) Weather History for the Previous 24 Hours

Scroll right to see more
 ConditionsComfort  
Time TempWeatherWind HumidityBarometerVisibility
4:20 PM
Tue, May 24
57 °FPartly sunny.8 mph72%30.01 "HgN/A
3:50 PM57 °FPartly sunny.8 mph67%30.01 "HgN/A
3:20 PM57 °FPartly sunny.8 mph67%30.01 "HgN/A
2:50 PM55 °FPartly sunny.9 mph72%30.01 "HgN/A
2:20 PM57 °FPartly sunny.10 mph67%30.01 "HgN/A
1:50 PM57 °FBroken clouds.8 mph67%30.04 "HgN/A
1:20 PM54 °FPartly sunny.10 mph72%30.04 "HgN/A
12:50 PM52 °FPartly sunny.9 mph77%30.04 "HgN/A
12:20 PM52 °FPartly sunny.8 mph77%30.04 "HgN/A
11:50 AM52 °FMostly cloudy.7 mph82%30.04 "HgN/A
11:20 AM52 °FPartly sunny.9 mph82%30.04 "HgN/A
10:50 AM52 °FOvercast.12 mph82%30.04 "HgN/A
10:20 AM50 °FPartly sunny.10 mph82%30.04 "HgN/A
9:50 AM50 °FBroken clouds.9 mph82%30.04 "HgN/A
9:20 AM50 °FBroken clouds.13 mph88%30.04 "HgN/A
8:50 AM50 °FMostly cloudy.13 mph82%30.04 "HgN/A
8:20 AM50 °FMostly cloudy.14 mph82%30.01 "HgN/A
7:50 AM50 °FMore clouds than sun.13 mph88%30.01 "HgN/A
7:20 AM50 °FMostly cloudy.13 mph88%30.01 "HgN/A
6:50 AM50 °FMostly cloudy.15 mph88%30.01 "HgN/A
6:20 AM50 °FMostly cloudy.14 mph94%30.01 "HgN/A
5:50 AM50 °FPassing clouds.14 mph94%30.01 "HgN/A
5:20 AM50 °FPartly cloudy.10 mph94%30.01 "HgN/A
4:50 AM50 °FPassing clouds.12 mph94%30.01 "HgN/A
4:20 AM50 °FPassing clouds.12 mph94%30.01 "HgN/A
3:50 AM50 °FPassing clouds.13 mph94%30.01 "HgN/A
3:20 AM50 °FPassing clouds.14 mph100%30.01 "HgN/A
2:50 AM50 °FPassing clouds.13 mph100%30.01 "Hg5 mi
2:20 AM50 °FPassing clouds.14 mph100%30.01 "Hg2 mi
1:50 AM52 °FPassing clouds.13 mph94%30.01 "HgN/A
1:20 AM52 °FPassing clouds.10 mph94%30.01 "Hg4 mi
12:50 AM52 °FPassing clouds.13 mph94%29.98 "Hg2 mi
12:20 AM50 °FPassing clouds.10 mph100%30.01 "Hg2 mi
11:50 PM
Mon, May 23
50 °FPartly cloudy.10 mph100%30.01 "Hg2 mi
11:20 PM50 °FPassing clouds.15 mph100%29.98 "Hg4 mi
10:50 PM50 °FPassing clouds.14 mph100%29.98 "HgN/A
10:20 PM52 °FDrizzle. Partly sunny.13 mph94%29.98 "Hg6 mi
9:50 PM52 °FDrizzle. Partly sunny.16 mph94%29.98 "Hg3 mi
9:20 PM52 °FDrizzle. Partly sunny.15 mph94%29.95 "Hg2 mi
8:50 PM52 °FDrizzle. Partly sunny.15 mph94%29.95 "Hg4 mi
8:20 PM52 °FDrizzle. Partly sunny.14 mph100%29.95 "Hg3 mi
7:50 PM52 °FDrizzle. Partly sunny.12 mph100%29.95 "Hg2 mi
7:20 PM52 °FDrizzle. Broken clouds.15 mph100%29.95 "Hg2 mi
6:50 PM54 °FDrizzle. Broken clouds.14 mph94%29.92 "Hg2 mi
6:20 PM54 °FDrizzle. Broken clouds.15 mph94%29.92 "HgN/A
5:50 PM54 °FDrizzle. Broken clouds.17 mph94%29.89 "HgN/A
5:20 PM54 °FDrizzle. Partly sunny.18 mph94%29.89 "Hg4 mi
Weather by CustomWeather, © 2016

See weather overviewHow to use our weather pages